Flag for Canada Weather past 2 weeks in Glace Bay, Nova Scotia, Canada

Now
79 °F

Passing clouds.


Feels Like: 80 °F
Forecast: 59 / 78 °F
Wind: 15 mph from West

Location: Sydney

Current Time: Jul 26, 2014 at 12:49:46 PM

Latest Report: Jul 26, 2014 at 12:00 PM


Visibility: 15 mi

Pressure: 29.89 "Hg

Humidity: 48%

Dew point: 57 °F

Location of Glace BayLocation

Historic Weather in Glace Bay — Graph

°F

Glace Bay temperature yesterday

Maximum temperature yesterday: 68 °F (at 12:00 AM)
Minimum temperature yesterday: 59 °F (at 11:00 PM)
Average temperature yesterday: 64 °F

Past Weeks' High & Low Weather Summary

 TemperatureHumidityPressure
High86 °F (Jul 23, 2:00 PM)100% (Jul 12, 6:00 AM)30.31 "Hg (Jul 12, 6:00 AM)
Low50 °F (Jul 12, 6:00 AM)31% (Jul 19, 4:00 PM)29.74 "Hg (Jul 25, 3:00 AM)
Average68 °F74%30.01 "Hg
* Reported Jul 11 11:00 AM — Jul 26 11:00 AM, Glace Bay, Weather by CustomWeather, © 2014

Note: Actual official high and low records may vary slightly from our data, if they occured in-between our weather recording intervals... More about our weather records

Advertising

Glace Bay weather history for previous 24 hours

 ConditionsComfort  
Time TempWeatherWind HumidityBarometerVisibility
11:00 AM
Jul 26
77 °FPassing clouds.10 mph54%29.89 "Hg15 mi
10:00 AM73 °FSunny.10 mph61%29.89 "Hg15 mi
9:00 AM70 °FSunny.10 mph69%29.89 "Hg15 mi
8:00 AM64 °FSunny.8 mph78%29.89 "Hg15 mi
7:00 AM59 °FPassing clouds.7 mph88%29.88 "Hg15 mi
6:00 AM55 °FPassing clouds.9 mph94%29.86 "Hg15 mi
5:00 AM55 °FPassing clouds.9 mph94%29.84 "Hg15 mi
4:00 AM54 °FPassing clouds.8 mph94%29.84 "Hg15 mi
3:00 AM55 °FPassing clouds.10 mph88%29.83 "Hg15 mi
2:00 AM55 °FPassing clouds.10 mph94%29.83 "Hg15 mi
1:00 AM55 °FPassing clouds.7 mph94%29.83 "Hg15 mi
12:00 AM55 °FPassing clouds.8 mph100%29.82 "Hg15 mi
11:00 PM
Jul 25
59 °FPassing clouds.6 mph94%29.80 "Hg15 mi
10:00 PM61 °FPassing clouds.6 mph94%29.81 "Hg15 mi
9:00 PM61 °FPartly sunny.5 mph94%29.79 "Hg15 mi
8:00 PM63 °FPartly sunny.5 mph88%29.79 "Hg15 mi
7:00 PM64 °FBroken clouds.8 mph83%29.78 "Hg15 mi
6:00 PM64 °FPartly sunny.9 mph83%29.78 "Hg15 mi
5:00 PM64 °FSprinkles. Partly sunny.9 mph78%29.78 "Hg10 mi
4:00 PM64 °FLight rain. Partly sunny.7 mph83%29.78 "Hg10 mi
3:00 PM64 °FOvercast.9 mph88%29.77 "Hg15 mi
2:00 PM64 °FLight rain. Low clouds.9 mph88%29.78 "Hg10 mi
1:00 PM63 °FLight rain. Fog.8 mph94%29.79 "Hg5 mi
12:00 PM63 °FLight rain. Fog.7 mph94%29.80 "Hg5 mi
Weather by CustomWeather, © 2014

See weather overviewHow to use our weather pages